�N����,����,�~����,�C��,���x,�C��,����,���ϕ���,�ő�u�ԕ���,�ő厞����,���˗�,�I�_���x,�n�����x,�ő啗���N��,DTYPE
"23/09/15","00:10",0.0,25.6,87.8,1008.3,322.0,1.3,2.1,329.3,0.00,23.5,25.8,"00:09:36",1
"23/09/15","00:20",0.0,25.7,87.8,1008.3,313.1,1.2,2.7,330.6,0.00,23.6,25.7,"00:10:40",1
"23/09/15","00:30",0.0,25.8,87.7,1008.1,304.4,1.0,1.8,333.9,0.00,23.6,25.6,"00:24:16",1
"23/09/15","00:40",0.0,25.7,87.6,1008.1,299.7,1.0,2.0,318.0,0.00,23.5,25.7,"00:39:12",1
"23/09/15","00:50",0.0,25.8,87.5,1007.8,312.0,1.0,1.4,293.8,0.00,23.6,25.7,"00:44:00",1
"23/09/15","01:00",0.0,25.7,87.4,1008.1,334.2,1.0,1.7,341.5,0.00,23.5,25.6,"00:56:56",1
"23/09/15","01:10",0.0,25.6,87.6,1008.1,316.3,0.8,1.4,349.1,0.00,23.4,25.7,"01:06:40",1
"23/09/15","01:20",0.0,25.6,87.9,1007.6,339.3,1.3,2.2,337.8,0.00,23.5,25.5,"01:19:44",1
"23/09/15","01:30",0.0,25.5,88.1,1007.8,329.5,1.2,1.9,337.0,0.00,23.4,25.6,"01:20:32",1
"23/09/15","01:40",0.0,25.5,88.3,1007.8,332.5,1.2,2.1,347.4,0.00,23.5,25.6,"01:36:00",1
"23/09/15","01:50",0.0,25.5,88.5,1007.6,333.6,1.5,2.7,336.6,0.00,23.5,25.5,"01:44:16",1
"23/09/15","02:00",0.0,25.5,88.5,1007.6,313.1,1.1,1.9,343.5,0.00,23.5,25.6,"01:50:16",1
"23/09/15","02:10",0.0,25.4,88.5,1007.8,303.1,0.8,1.2,326.6,0.00,23.4,25.8,"02:04:16",1
"23/09/15","02:20",0.0,25.4,88.5,1007.4,289.1,0.7,1.1,331.1,0.00,23.4,25.6,"02:10:16",1
"23/09/15","02:30",0.0,25.3,88.6,1007.6,322.4,0.5,1.2,317.6,0.00,23.3,25.6,"02:23:20",1
"23/09/15","02:40",0.0,25.3,88.8,1007.4,323.8,0.7,1.1,338.2,0.00,23.4,25.7,"02:36:08",1
"23/09/15","02:50",0.0,25.2,89.0,1007.4,336.0,0.6,1.0,339.5,0.00,23.3,25.5,"02:43:12",1
"23/09/15","03:00",0.0,25.3,89.2,1007.8,295.1,0.7,1.0,268.2,0.00,23.4,25.5,"02:58:16",1
"23/09/15","03:10",0.0,25.2,89.4,1007.6,296.1,0.7,1.0,326.6,0.00,23.4,25.4,"03:08:24",1
"23/09/15","03:20",0.0,25.3,89.6,1007.6,315.3,0.6,1.1,319.4,0.00,23.5,25.6,"03:11:04",1
"23/09/15","03:30",0.0,25.3,89.8,1007.8,327.3,0.8,1.3,328.5,0.00,23.5,25.5,"03:26:56",1
"23/09/15","03:40",0.0,25.3,89.9,1007.6,326.6,0.8,1.4,338.2,0.00,23.6,25.3,"03:36:48",1
"23/09/15","03:50",0.0,25.3,90.0,1007.8,305.0,0.7,1.2,334.5,0.00,23.6,25.6,"03:42:08",1
"23/09/15","04:00",0.0,25.2,90.2,1007.4,256.5,0.1,0.4,243.4,0.00,23.5,25.3,"03:54:40",1
"23/09/15","04:10",0.0,25.2,90.3,1007.4,259.7,0.6,1.0,250.3,0.00,23.5,25.3,"04:06:40",1
"23/09/15","04:20",0.0,25.2,90.4,1007.6,293.4,0.8,1.3,322.8,0.00,23.6,25.5,"04:15:52",1
"23/09/15","04:30",0.0,25.4,90.5,1007.4,321.6,0.8,1.7,356.6,0.00,23.8,25.4,"04:26:56",1
"23/09/15","04:40",0.0,25.4,90.4,1007.4,324.2,1.0,1.8,316.6,0.00,23.8,25.4,"04:39:20",1
"23/09/15","04:50",0.0,25.3,90.5,1008.1,301.4,0.8,1.3,305.5,0.00,23.7,25.4,"04:42:08",1
"23/09/15","05:00",0.0,25.3,90.6,1007.8,278.7,0.6,1.1,311.9,0.00,23.7,25.4,"04:53:20",1
"23/09/15","05:10",0.0,25.3,90.6,1008.1,304.9,0.5,0.8,305.9,0.00,23.7,25.5,"05:05:12",1
"23/09/15","05:20",0.0,25.3,90.6,1007.6,304.5,0.6,1.1,326.8,0.00,23.7,25.2,"05:19:44",1
"23/09/15","05:30",0.0,25.3,90.6,1008.1,311.9,1.0,1.3,306.9,0.00,23.7,25.3,"05:22:16",1
"23/09/15","05:40",0.0,25.2,90.6,1008.3,308.2,0.7,1.0,337.1,0.00,23.6,25.3,"05:30:24",1
"23/09/15","05:50",0.0,25.1,90.6,1008.1,311.1,0.6,1.1,327.8,0.00,23.5,25.3,"05:47:52",1
"23/09/15","06:00",0.0,25.0,90.7,1008.3,337.1,0.5,1.6,359.0,0.00,23.4,25.3,"05:59:44",1
"23/09/15","06:10",0.0,25.0,90.8,1008.6,328.9,0.8,1.7,336.8,0.00,23.4,25.2,"06:00:40",1
"23/09/15","06:20",0.0,25.2,90.9,1008.6,330.6,1.1,1.9,340.9,0.00,23.6,25.3,"06:18:00",1
"23/09/15","06:30",0.0,25.5,90.9,1008.8,328.2,1.3,2.2,324.6,0.00,23.9,25.3,"06:24:24",1
"23/09/15","06:40",0.0,25.6,90.8,1009.0,327.6,1.3,2.5,330.2,0.01,24.0,25.3,"06:37:28",1
"23/09/15","06:50",0.0,25.7,90.8,1008.8,328.9,1.0,2.5,346.2,0.02,24.1,25.3,"06:42:24",1
"23/09/15","07:00",0.0,26.0,90.6,1009.0,333.3,0.7,1.7,348.9,0.03,24.4,25.2,"06:58:00",1
"23/09/15","07:10",0.0,26.2,90.2,1008.8,311.4,1.0,2.7,347.5,0.06,24.5,25.3,"07:07:04",1
"23/09/15","07:20",0.0,27.1,89.4,1008.3,326.8,0.6,1.7,332.7,0.09,25.2,25.3,"07:14:40",1
"23/09/15","07:30",0.0,27.2,87.7,1009.0,341.1,0.7,1.6,350.9,0.07,25.0,25.3,"07:27:04",1
"23/09/15","07:40",0.0,28.1,86.7,1008.6,59.1,0.3,1.0,345.3,0.10,25.7,25.2,"07:30:48",1
"23/09/15","07:50",0.0,28.6,84.7,1007.8,185.9,0.6,1.7,238.6,0.18,25.8,25.4,"07:46:48",1
"23/09/15","08:00",0.0,29.4,82.0,1008.1,68.3,0.5,1.2,6.3,0.18,26.0,25.3,"07:53:20",1
"23/09/15","08:10",0.0,29.4,79.9,1008.6,143.3,0.5,1.2,131.6,0.08,25.6,25.5,"08:04:48",1
"23/09/15","08:20",0.0,29.1,79.3,1008.8,195.4,0.3,1.0,116.5,0.06,25.2,25.5,"08:10:40",1
"23/09/15","08:30",0.0,29.3,79.8,1008.6,224.8,0.3,1.1,235.4,0.12,25.5,25.5,"08:26:00",1
"23/09/15","08:40",0.0,29.4,79.3,1008.6,172.6,0.6,2.0,200.9,0.14,25.5,25.3,"08:33:52",1
"23/09/15","08:50",0.0,29.9,78.5,1009.0,151.4,0.6,2.4,235.3,0.25,25.8,25.4,"08:42:24",1
"23/09/15","09:00",0.0,30.4,75.8,1009.3,189.8,0.6,1.6,232.1,0.24,25.7,25.6,"08:56:08",1
"23/09/15","09:10",0.0,30.3,74.7,1009.7,223.9,0.5,1.2,270.2,0.13,25.3,25.5,"09:05:52",1
"23/09/15","09:20",0.0,30.5,74.8,1009.5,211.6,1.0,2.7,215.5,0.30,25.6,25.7,"09:13:20",1
"23/09/15","09:30",0.0,31.2,73.3,1009.5,151.6,1.0,2.2,181.4,0.39,25.9,25.6,"09:26:56",1
"23/09/15","09:40",0.0,32.3,70.5,1010.2,172.7,0.7,1.7,147.2,0.46,26.3,25.7,"09:36:56",1
"23/09/15","09:50",0.0,32.2,68.6,1010.4,156.9,1.5,3.4,219.9,0.43,25.7,25.7,"09:41:36",1
"23/09/15","10:00",0.0,33.0,68.5,1010.2,114.8,1.0,2.2,155.9,0.43,26.5,25.6,"09:56:00",1
"23/09/15","10:10",0.0,32.3,67.0,1010.7,182.7,1.7,3.7,207.3,0.40,25.4,25.9,"10:09:24",1
"23/09/15","10:20",0.0,31.7,69.0,1010.0,194.6,1.6,3.3,222.8,0.24,25.3,26.0,"10:10:08",1
"23/09/15","10:30",0.0,31.7,70.0,1010.0,156.1,1.2,2.4,123.7,0.23,25.6,26.0,"10:20:32",1
"23/09/15","10:40",0.0,31.6,69.6,1009.7,157.0,1.1,2.1,154.5,0.22,25.4,26.0,"10:38:56",1
"23/09/15","10:50",0.0,31.6,69.4,1009.5,181.6,1.1,2.7,194.1,0.24,25.4,26.0,"10:46:24",1
"23/09/15","11:00",0.0,33.0,66.4,1009.3,143.5,1.2,3.1,193.1,0.56,25.9,26.2,"10:58:16",1
"23/09/15","11:10",0.0,33.1,64.8,1010.0,179.8,1.1,2.4,207.5,0.31,25.6,26.2,"11:01:28",1
"23/09/15","11:20",0.0,32.5,67.0,1009.7,167.1,1.2,2.7,195.7,0.30,25.6,26.2,"11:10:40",1
"23/09/15","11:30",0.0,33.2,65.4,1009.5,227.1,0.7,2.7,203.3,0.45,25.9,26.5,"11:20:02",1
"23/09/15","11:40",0.0,33.4,63.0,1009.7,211.4,2.3,4.2,211.8,0.55,25.4,26.5,"11:39:52",1
"23/09/15","11:50",0.0,33.5,63.1,1009.7,194.9,2.0,4.0,210.2,0.54,25.6,26.3,"11:40:48",1
"23/09/15","12:00",0.0,33.3,62.0,1010.0,187.8,1.5,3.9,208.1,0.41,25.1,26.5,"11:52:32",1
"23/09/15","12:10",0.0,32.8,63.9,1009.5,185.5,1.6,3.7,201.2,0.25,25.1,26.5,"12:06:32",1
"23/09/15","12:20",0.0,32.4,65.3,1009.3,198.2,1.6,3.3,205.5,0.21,25.1,26.6,"12:10:24",1
"23/09/15","12:30",0.0,33.9,63.5,1009.3,185.2,1.5,4.1,212.6,0.50,26.0,26.7,"12:24:56",1
"23/09/15","12:40",0.0,33.4,63.3,1009.3,184.8,2.1,3.9,212.7,0.34,25.5,26.8,"12:30:08",1
"23/09/15","12:50",0.0,32.2,66.4,1009.3,180.6,1.8,3.7,205.1,0.14,25.2,26.7,"12:49:36",1
"23/09/15","13:00",0.0,32.7,65.4,1008.8,218.7,1.7,4.0,236.3,0.29,25.4,26.8,"12:54:16",1
"23/09/15","13:10",0.0,32.5,63.4,1008.3,213.0,2.6,4.2,211.0,0.16,24.7,26.9,"13:05:52",1
"23/09/15","13:20",0.0,32.2,64.2,1007.8,231.5,1.7,3.7,225.5,0.11,24.6,27.1,"13:11:36",1
"23/09/15","13:30",0.0,32.7,65.5,1007.8,239.4,1.7,4.0,235.0,0.23,25.4,26.9,"13:24:40",1
"23/09/15","13:40",0.0,33.3,62.8,1007.8,236.4,1.6,3.7,244.5,0.34,25.3,26.9,"13:33:04",1
"23/09/15","13:50",0.0,34.0,60.1,1008.6,277.2,1.3,3.5,348.4,0.39,25.2,27.1,"13:44:40",1
"23/09/15","14:00",0.0,33.7,60.4,1008.3,253.3,1.1,3.4,228.6,0.22,25.0,27.1,"13:58:00",1
"23/09/15","14:10",0.0,33.6,62.7,1008.6,231.0,1.8,4.1,240.1,0.28,25.5,26.9,"14:08:08",1
"23/09/15","14:20",0.0,33.5,60.1,1008.3,303.2,1.3,4.2,235.6,0.22,24.7,27.1,"14:10:32",1
"23/09/15","14:30",0.0,33.4,60.7,1007.8,332.5,0.6,1.9,221.8,0.16,24.8,27.2,"14:20:48",1
"23/09/15","14:40",0.0,32.8,62.5,1007.8,216.2,1.5,3.1,221.1,0.07,24.7,27.1,"14:31:28",1
"23/09/15","14:50",0.0,32.6,64.0,1007.6,234.4,1.1,2.6,221.7,0.08,24.9,27.0,"14:48:56",1
"23/09/15","15:00",0.0,32.5,64.8,1007.1,234.9,1.5,3.6,232.2,0.10,25.1,27.2,"14:59:20",1
"23/09/15","15:10",0.0,33.3,63.7,1007.1,224.7,1.7,4.0,238.4,0.29,25.5,27.2,"15:04:00",1
"23/09/15","15:20",0.0,33.5,63.7,1007.4,214.6,2.0,4.5,218.3,0.20,25.7,27.2,"15:17:04",1
"23/09/15","15:30",0.0,32.9,64.7,1007.1,208.4,2.8,4.9,217.9,0.15,25.4,27.2,"15:24:48",1
"23/09/15","15:40",0.0,32.9,64.1,1007.4,235.7,1.7,3.6,222.0,0.13,25.2,27.2,"15:34:24",1
"23/09/15","15:50",0.0,32.8,64.7,1007.1,229.4,1.2,2.9,236.8,0.09,25.3,27.1,"15:42:24",1
"23/09/15","16:00",0.0,32.3,66.3,1006.9,230.8,1.3,3.2,187.9,0.06,25.2,27.2,"15:58:08",1
"23/09/15","16:10",0.0,32.1,66.9,1006.7,254.3,1.2,2.9,234.1,0.05,25.2,27.3,"16:02:32",1
"23/09/15","16:20",0.0,32.0,66.9,1006.4,253.8,1.0,2.2,238.1,0.05,25.1,27.4,"16:19:12",1
"23/09/15","16:30",0.0,32.2,66.8,1006.2,277.6,0.7,2.1,253.9,0.06,25.3,27.3,"16:22:24",1
"23/09/15","16:40",0.0,32.2,67.0,1006.4,285.7,0.7,2.5,231.8,0.06,25.3,27.2,"16:35:04",1
"23/09/15","16:50",0.0,32.0,67.7,1006.4,279.8,0.5,1.4,243.0,0.05,25.3,27.1,"16:40:16",1
"23/09/15","17:00",0.0,31.8,68.9,1006.4,329.7,1.1,2.7,336.4,0.03,25.4,27.2,"16:51:44",1
"23/09/15","17:10",0.0,31.5,71.1,1006.7,328.6,1.0,1.9,350.9,0.03,25.7,27.4,"17:06:16",1
"23/09/15","17:20",0.0,31.3,71.2,1006.2,332.7,0.8,2.4,338.1,0.03,25.5,27.2,"17:16:48",1
"23/09/15","17:30",0.0,31.1,71.7,1006.4,313.1,0.6,1.0,317.0,0.02,25.4,27.2,"17:21:04",1
"23/09/15","17:40",0.0,30.7,73.1,1006.4,351.4,0.8,1.4,347.3,0.01,25.4,27.2,"17:33:28",1
"23/09/15","17:50",0.0,30.3,74.7,1006.2,349.5,1.0,1.8,347.1,0.00,25.3,27.3,"17:49:52",1
"23/09/15","18:00",0.0,29.8,76.6,1005.7,349.1,1.0,1.9,351.5,0.00,25.3,27.1,"17:50:48",1
"23/09/15","18:10",0.0,29.5,78.0,1005.7,349.7,1.0,2.2,335.3,0.00,25.3,27.2,"18:09:52",1
"23/09/15","18:20",0.0,29.2,79.4,1005.2,348.6,1.0,1.9,345.4,0.00,25.3,27.3,"18:17:44",1
"23/09/15","18:30",0.0,28.8,80.8,1005.7,338.4,1.1,2.5,339.5,0.00,25.2,27.2,"18:29:20",1
"23/09/15","18:40",0.0,28.5,82.0,1006.0,335.1,1.1,2.2,354.1,0.00,25.2,27.1,"18:31:28",1
"23/09/15","18:50",0.0,28.3,82.8,1006.7,311.6,0.7,1.8,306.6,0.00,25.1,27.2,"18:43:52",1
"23/09/15","19:00",0.0,28.1,83.2,1006.7,311.1,0.7,1.3,330.1,0.00,25.0,27.0,"18:53:52",1
"23/09/15","19:10",0.0,28.0,83.5,1006.9,313.4,0.8,1.7,316.6,0.00,25.0,26.9,"19:08:16",1
"23/09/15","19:20",0.0,27.9,83.7,1007.1,312.3,0.8,1.8,334.0,0.00,24.9,26.8,"19:17:44",1
"23/09/15","19:30",0.0,27.8,83.9,1007.4,314.3,0.7,1.6,347.0,0.00,24.9,26.9,"19:24:24",1
"23/09/15","19:40",0.0,27.7,84.4,1007.6,292.0,0.7,1.4,313.2,0.00,24.9,27.1,"19:39:12",1
"23/09/15","19:50",0.0,27.5,84.7,1007.8,300.5,1.0,1.9,313.2,0.00,24.7,26.7,"19:43:12",1
"23/09/15","20:00",0.0,27.5,84.9,1007.8,315.2,1.3,2.8,349.3,0.00,24.8,26.8,"19:57:36",1
"23/09/15","20:10",0.0,27.5,85.1,1008.1,315.0,1.3,2.0,354.6,0.00,24.8,26.8,"20:06:40",1
"23/09/15","20:20",0.0,27.4,85.3,1007.8,319.4,1.0,1.7,310.2,0.00,24.8,26.9,"20:11:52",1
"23/09/15","20:30",0.0,27.2,85.6,1008.3,306.0,0.8,1.3,330.7,0.00,24.6,26.9,"20:23:04",1
"23/09/15","20:40",0.0,27.2,85.9,1008.3,331.2,1.0,1.6,345.5,0.00,24.7,26.8,"20:36:40",1
"23/09/15","20:50",0.0,26.9,86.3,1008.3,10.1,0.3,1.3,340.2,0.00,24.5,26.8,"20:40:56",1
"23/09/15","21:00",0.0,26.6,86.8,1008.3,282.8,0.5,0.9,266.2,0.00,24.3,26.9,"20:51:52",1
"23/09/15","21:10",0.0,26.6,87.3,1008.1,312.9,0.8,1.2,254.7,0.00,24.4,26.7,"21:00:56",1
"23/09/15","21:20",0.0,26.6,87.7,1008.6,311.7,0.7,1.4,307.6,0.00,24.4,26.7,"21:19:28",1
"23/09/15","21:30",0.0,26.7,88.0,1008.6,317.9,0.8,1.6,317.0,0.00,24.6,26.5,"21:23:52",1
"23/09/15","21:40",0.0,26.6,88.2,1008.1,312.0,1.0,1.6,340.9,0.00,24.5,26.5,"21:34:40",1
"23/09/15","21:50",0.0,26.6,88.3,1008.3,292.9,0.7,1.4,297.3,0.00,24.5,26.6,"21:44:00",1
"23/09/15","22:00",0.0,26.5,88.5,1008.6,289.5,0.7,1.6,338.4,0.00,24.5,26.7,"21:59:52",1
"23/09/15","22:10",0.0,26.4,88.7,1008.8,295.9,0.8,1.9,321.4,0.00,24.4,26.6,"22:09:04",1
"23/09/15","22:20",0.0,26.4,88.8,1008.6,323.3,1.0,1.7,318.8,0.00,24.4,26.4,"22:11:12",1
"23/09/15","22:30",0.0,26.3,88.9,1008.6,330.9,1.0,1.7,322.8,0.00,24.4,26.5,"22:27:28",1
"23/09/15","22:40",0.0,26.2,89.0,1008.6,333.1,0.8,1.3,331.7,0.00,24.3,26.5,"22:32:00",1
"23/09/15","22:50",0.0,26.1,89.1,1008.6,296.2,0.7,1.3,309.5,0.00,24.2,26.4,"22:45:04",1
"23/09/15","23:00",0.0,26.0,89.3,1008.6,262.7,0.2,0.9,299.3,0.00,24.1,26.5,"22:50:24",1
"23/09/15","23:10",0.0,25.8,89.5,1008.8,330.3,0.2,1.1,249.2,0.00,24.0,26.5,"23:00:02",1
"23/09/15","23:20",0.0,25.9,89.7,1008.3,312.5,1.0,1.6,350.3,0.00,24.1,26.3,"23:16:48",1
"23/09/15","23:30",0.0,25.8,89.9,1008.8,318.8,1.3,2.9,335.5,0.00,24.1,26.4,"23:27:20",1
"23/09/15","23:40",0.0,25.8,89.7,1008.3,320.6,1.3,3.5,343.4,0.00,24.0,26.2,"23:36:48",1
"23/09/15","23:50",0.0,25.8,89.3,1008.8,332.8,1.6,2.9,346.6,0.00,23.9,26.3,"23:49:12",1
"23/09/15","24:00",0.0,25.9,88.8,1009.0,331.9,1.7,3.3,349.6,0.00,23.9,26.2,"23:51:12",1
